Flag Weather past 2 weeks in Lugano, Switzerland

Now
50 °F

Light rain. Fog.


Feels Like: 48 °F
Forecast: 42 / 55 °F
Wind: 6 mph from Southwest

Location: Lugano Airport

Current Time: Nov 26, 2014 at 1:30:57 AM

Latest Report: Nov 26, 2014 at 12:50 AM


Visibility: 2 mi

Pressure: 30.09 "Hg

Humidity: 94%

Dew point: 48 °F

Location of LuganoLocation

Historic Weather in Lugano — Graph

°F

Lugano temperature yesterday

Maximum temperature yesterday: 55 °F (at 1:50 PM)
Minimum temperature yesterday: 43 °F (at 12:20 AM)
Average temperature yesterday: 49 °F

Past Weeks' High & Low Weather Summary

 TemperatureHumidityPressure
High61 °F (Nov 13, 2:20 PM)100% (Nov 11, 1:20 AM)30.36 "Hg (Nov 11, 1:20 AM)
Low32 °F (Nov 19, 8:20 AM)48% (Nov 19, 2:20 PM)29.53 "Hg (Nov 15, 7:20 PM)
Average47 °F91%29.97 "Hg
* Reported Nov 11 12:20 AM — Nov 26 12:20 AM, Lugano, Weather by CustomWeather, © 2014

Note: Actual official high and low records may vary slightly from our data, if they occured in-between our weather recording intervals... More about our weather records

Advertising

Lugano weather history for previous 24 hours

 ConditionsComfort  
Time TempWeatherWind HumidityBarometerVisibility
12:20 AM
Nov 26
50 °FSprinkles. Fog.1 mph94%30.09 "Hg2 mi
11:50 PM
Nov 25
50 °FSprinkles. Fog.2 mph94%30.12 "Hg2 mi
11:20 PM50 °FLight rain. Passing clouds.1 mph94%30.12 "Hg3 mi
10:50 PM50 °FMostly cloudy.2 mph94%30.09 "Hg4 mi
10:20 PM50 °FOvercast.2 mph94%30.09 "HgN/A
9:50 PM50 °FPassing clouds.1 mph94%30.12 "HgN/A
9:20 PM50 °FPartly cloudy.No wind94%30.09 "HgN/A
8:50 PM50 °FPartly cloudy.1 mph94%30.09 "HgN/A
8:20 PM50 °FPartly cloudy.1 mph94%30.09 "HgN/A
7:50 PM50 °FPassing clouds.1 mph94%30.09 "HgN/A
7:20 PM52 °FPartly cloudy.2 mph82%30.09 "HgN/A
6:50 PM50 °FPartly cloudy.2 mph94%30.09 "HgN/A
6:20 PM52 °FPartly cloudy.3 mph82%30.09 "HgN/A
5:50 PM52 °FPartly cloudy.2 mph88%30.09 "HgN/A
5:20 PM52 °FPartly cloudy.2 mph88%30.09 "HgN/A
4:50 PM52 °FPartly cloudy.2 mph88%30.09 "HgN/A
4:20 PM54 °FBroken clouds.1 mph77%30.09 "HgN/A
3:50 PM54 °FBroken clouds.2 mph77%30.09 "HgN/A
3:20 PM54 °FPartly sunny.2 mph77%30.09 "HgN/A
2:50 PM55 °FPartly sunny.1 mph72%30.09 "HgN/A
2:20 PM55 °FBroken clouds.2 mph72%30.12 "HgN/A
1:50 PM55 °FBroken clouds.2 mph67%30.12 "HgN/A
1:20 PM54 °FBroken clouds.1 mph72%30.12 "HgN/A
12:50 PM54 °FBroken clouds.2 mph77%30.15 "HgN/A
12:20 PM54 °FPartly sunny.2 mph77%30.15 "HgN/A
11:50 AM52 °FBroken clouds.5 mph82%30.15 "HgN/A
11:20 AM52 °FBroken clouds.1 mph82%30.15 "HgN/A
10:50 AM50 °FBroken clouds.3 mph88%30.15 "HgN/A
10:20 AM50 °FBroken clouds.1 mph88%30.18 "HgN/A
9:50 AM48 °FSunny.1 mph87%30.15 "Hg10 mi
9:20 AM45 °FPartly sunny.1 mph100%30.15 "HgN/A
8:50 AM46 °FScattered clouds.1 mph93%30.15 "HgN/A
8:20 AM45 °FScattered clouds.2 mph100%30.15 "HgN/A
7:50 AM45 °FScattered clouds.3 mph93%30.15 "HgN/A
7:20 AM45 °FPassing clouds.1 mph100%30.15 "HgN/A
6:50 AM45 °FPassing clouds.1 mph100%30.15 "HgN/A
6:20 AM45 °FPassing clouds.3 mph93%30.15 "HgN/A
5:50 AM45 °FOvercast.2 mph100%30.15 "HgN/A
5:20 AM45 °FPartly cloudy.1 mph93%30.15 "HgN/A
4:50 AM45 °FPassing clouds.2 mph93%30.15 "HgN/A
4:20 AM45 °FPassing clouds.1 mph93%30.15 "HgN/A
3:50 AM45 °FPartly cloudy.6 mph93%30.15 "HgN/A
3:20 AM45 °FClear.2 mph100%30.18 "HgN/A
2:50 AM45 °FPassing clouds.1 mph93%30.18 "HgN/A
2:20 AM43 °FClear.3 mph100%30.18 "Hg10 mi
1:50 AM43 °FFog.3 mph93%30.21 "Hg2 mi
1:20 AM43 °FFog.1 mph100%30.21 "Hg1 mi
Weather by CustomWeather, © 2014

See weather overviewHow to use our weather pages